Starlink 35202

operational
NORAD ID: 65647 Int'l Des: 2025-210 Owner: SPXS Country: US Constellation: starlink
LEOCIRCULAR

Über Starlink 35202

Beschreibung wird geladen...

Live-Position

3D-Globus wird geladen...

Nächste Überflüge

Höhenverlauf

Altitude vs Time

uPlot chart will show altitude changes over time

Zweizeiliger Elementsatz

1 65647U 25210AB 26061.08014164 .00014319 00000-0 49493-3 0 9997
2 65647 53.1600 342.5872 0001260 86.6006 273.5139 15.30182229 26563
Epoch: 2. März 2026 • Age: 27 hours

Aktueller Status

Höhe 480.5 km
Geschwindigkeit 7.63 km/s
Subsatellitenpunkt -18.08°S, 119.19°E
Startdatum 18. Sept. 2025
Alter 0.4 years
Typ internet

Technische Details

Klassifizierung Payload
Masse 575.00 kg
Trockenmasse 530.00 kg
Gesamtmasse 575.00 kg
Länge 0.30 m
Durchmesser 4.10 m
Spannweite 29.00 m
Form Box + pan
Hersteller SPXS
Bus-Typ Starlink V2MO
Phasenstatus In Orbit
Besitzer/Staat SPXS/US

Große Konstellationen

Loading constellations...